This is the latest recevied weather packets stored in our database for station/object KO4IDC-13. If no packets are shown the sender has not sent any weather packets the latest 10 day(s).
| Time | Temp. | Humidity | Pressure | Rain* | Wind** | Luminosity | Snow |
|---|---|---|---|---|---|---|---|
| 1777912420 | 23.89° C | 53% | 1012.3 hPa | 0 mm | - | 702 W/m² | - |
| 1777912117 | 23.89° C | 52% | 1012.6 hPa | 0 mm | - | 712 W/m² | - |
| 1777911812 | 23.89° C | 52% | 1012.4 hPa | 0 mm | - | 707 W/m² | - |
| 1777911509 | 23.89° C | 52% | 1012.6 hPa | 0 mm | - | 693 W/m² | - |
| 1777911206 | 23.33° C | 55% | 1012.6 hPa | 0 mm | - | 692 W/m² | - |
| 1777910903 | 23.33° C | 55% | 1012.7 hPa | 0 mm | - | 685 W/m² | - |
| 1777910600 | 23.33° C | 54% | 1012.7 hPa | 0 mm | - | 680 W/m² | - |
| 1777910297 | 22.78° C | 55% | 1012.4 hPa | 0 mm | - | 533 W/m² | - |
| 1777909994 | 22.78° C | 55% | 1012.5 hPa | 0 mm | - | 670 W/m² | - |
| 1777909691 | 22.22° C | 56% | 1012.6 hPa | 0 mm | - | 652 W/m² | - |
| 1777909389 | 22.22° C | 57% | 1012.7 hPa | 0 mm | - | 650 W/m² | - |
| 1777909087 | 21.67° C | 57% | 1012.9 hPa | 0 mm | - | 643 W/m² | - |
| 1777908784 | 22.22° C | 56% | 1012.6 hPa | 0 mm | - | 632 W/m² | - |
| 1777908481 | 21.67° C | 56% | 1012.8 hPa | 0 mm | - | 622 W/m² | - |
| 1777908177 | 21.67° C | 58% | 1012.9 hPa | 0 mm | - | 617 W/m² | - |
| 1777907873 | 21.11° C | 57% | 1012.7 hPa | 0 mm | - | 604 W/m² | - |
| 1777907569 | 21.11° C | 56% | 1012.8 hPa | 0 mm | - | 594 W/m² | - |
| 1777907265 | 21.67° C | 57% | 1012.9 hPa | 0 mm | - | 587 W/m² | - |
| 1777906962 | 21.11° C | 58% | 1013 hPa | 0 mm | - | 576 W/m² | - |
| 1777906660 | 20.56° C | 59% | 1012.8 hPa | 0 mm | - | 555 W/m² | - |
| 1777906356 | 21.11° C | 57% | 1013 hPa | 0 mm | - | 556 W/m² | - |
| 1777906052 | 20.56° C | 58% | 1013.1 hPa | 0 mm | - | 549 W/m² | - |
| 1777905749 | 20° C | 58% | 1013.2 hPa | 0 mm | - | 535 W/m² | - |
| 1777905446 | 20° C | 59% | 1013.3 hPa | 0 mm | - | 524 W/m² | - |
| 1777905144 | 20° C | 59% | 1013.3 hPa | 0 mm | - | 508 W/m² | - |
* Rain latest hour (hover to see other rain measurements)
** Current wind speed in m/s (hover to see current wind gust speed)